Year,Month,Day,Hour,Minute,Value (Times are PST for temperature in C)
2008,08,24,00,00,17.10
2008,08,24,00,01,17.00
2008,08,24,00,02,17.00
2008,08,24,00,03,16.90
2008,08,24,00,04,16.90
2008,08,24,00,05,16.90
2008,08,24,00,06,16.90
2008,08,24,00,07,16.90
2008,08,24,00,08,16.90
2008,08,24,00,09,16.90
2008,08,24,00,10,16.90
2008,08,24,00,11,16.90
2008,08,24,00,12,16.90
2008,08,24,00,13,16.90
2008,08,24,00,14,16.90
2008,08,24,00,15,16.90
2008,08,24,00,16,16.90
2008,08,24,00,17,16.90
2008,08,24,00,18,16.90
2008,08,24,00,19,16.80
2008,08,24,00,20,16.80
2008,08,24,00,21,16.80
2008,08,24,00,22,16.80
2008,08,24,00,23,16.70
2008,08,24,00,24,16.70
2008,08,24,00,25,16.70
2008,08,24,00,26,16.70
2008,08,24,00,27,16.70
2008,08,24,00,28,16.70
2008,08,24,00,29,16.70
2008,08,24,00,30,16.60
2008,08,24,00,31,16.50
2008,08,24,00,32,16.40
2008,08,24,00,33,16.40
2008,08,24,00,34,16.40
2008,08,24,00,35,16.40
2008,08,24,00,36,16.30
2008,08,24,00,37,16.30
2008,08,24,00,38,16.30
2008,08,24,00,39,16.30
2008,08,24,00,40,16.30
2008,08,24,00,41,16.30
2008,08,24,00,42,16.30
2008,08,24,00,43,16.30
2008,08,24,00,44,16.30
2008,08,24,00,45,16.30
2008,08,24,00,46,16.30
2008,08,24,00,47,16.30
2008,08,24,00,48,16.30
2008,08,24,00,49,16.40
2008,08,24,00,50,16.40
2008,08,24,00,51,16.40
2008,08,24,00,52,16.40
2008,08,24,00,53,16.40
2008,08,24,00,54,16.40
2008,08,24,00,55,16.30
2008,08,24,00,56,16.10
2008,08,24,00,57,16.00
2008,08,24,00,58,15.80
2008,08,24,00,59,15.70
2008,08,24,01,00,15.60
2008,08,24,01,01,15.50
2008,08,24,01,02,15.40
2008,08,24,01,03,15.40
2008,08,24,01,04,15.30
2008,08,24,01,05,15.20
2008,08,24,01,06,15.20
2008,08,24,01,07,15.20
2008,08,24,01,08,15.10
2008,08,24,01,09,15.00
2008,08,24,01,10,15.00
2008,08,24,01,11,14.90
2008,08,24,01,12,14.80
2008,08,24,01,13,14.80
2008,08,24,01,14,14.80
2008,08,24,01,15,14.70
2008,08,24,01,16,14.70
2008,08,24,01,17,14.70
2008,08,24,01,18,14.70
2008,08,24,01,19,14.60
2008,08,24,01,20,14.60
2008,08,24,01,21,14.50
2008,08,24,01,22,14.50
2008,08,24,01,23,14.50
2008,08,24,01,24,14.40
2008,08,24,01,25,14.40
2008,08,24,01,26,14.30
2008,08,24,01,27,14.30
2008,08,24,01,28,14.30
2008,08,24,01,29,14.30
2008,08,24,01,30,14.30
2008,08,24,01,31,14.30
2008,08,24,01,32,14.30
2008,08,24,01,33,14.30
2008,08,24,01,34,14.30
2008,08,24,01,35,14.30
2008,08,24,01,36,14.30
2008,08,24,01,37,14.30
2008,08,24,01,38,14.30
2008,08,24,01,39,14.30
2008,08,24,01,40,14.30
2008,08,24,01,41,14.20
2008,08,24,01,42,14.20
2008,08,24,01,43,14.20
2008,08,24,01,44,14.20
2008,08,24,01,45,14.20
2008,08,24,01,46,14.20
2008,08,24,01,47,14.20
2008,08,24,01,48,14.20
2008,08,24,01,49,14.10
2008,08,24,01,50,14.10
2008,08,24,01,51,14.10
2008,08,24,01,52,14.00
2008,08,24,01,53,14.00
2008,08,24,01,54,13.90
2008,08,24,01,55,13.90
2008,08,24,01,56,13.90
2008,08,24,01,57,13.80
2008,08,24,01,58,13.80
2008,08,24,01,59,13.70
2008,08,24,02,00,13.70
2008,08,24,02,01,13.70
2008,08,24,02,02,13.70
2008,08,24,02,03,13.60
2008,08,24,02,04,13.60
2008,08,24,02,05,13.50
2008,08,24,02,06,13.40
2008,08,24,02,07,13.30
2008,08,24,02,08,13.30
2008,08,24,02,09,13.20
2008,08,24,02,10,13.10
2008,08,24,02,11,13.00
2008,08,24,02,12,13.00
2008,08,24,02,13,12.90
2008,08,24,02,14,12.90
2008,08,24,02,15,12.90
2008,08,24,02,16,12.80
2008,08,24,02,17,12.80
2008,08,24,02,18,12.80
2008,08,24,02,19,12.80
2008,08,24,02,20,12.70
2008,08,24,02,21,12.70
2008,08,24,02,22,12.60
2008,08,24,02,23,12.50
2008,08,24,02,24,12.50
2008,08,24,02,25,12.40
2008,08,24,02,26,12.40
2008,08,24,02,27,12.40
2008,08,24,02,28,12.30
2008,08,24,02,29,12.30
2008,08,24,02,30,12.30
2008,08,24,02,31,12.30
2008,08,24,02,32,12.30
2008,08,24,02,33,12.30
2008,08,24,02,34,12.30
2008,08,24,02,35,12.40
2008,08,24,02,36,12.40
2008,08,24,02,37,12.40
2008,08,24,02,38,12.40
2008,08,24,02,39,12.40
2008,08,24,02,40,12.40
2008,08,24,02,41,12.40
2008,08,24,02,42,12.40
2008,08,24,02,43,12.40
2008,08,24,02,44,12.40
2008,08,24,02,45,12.40
2008,08,24,02,46,12.40
2008,08,24,02,47,12.40
2008,08,24,02,48,12.40
2008,08,24,02,49,12.50
2008,08,24,02,50,12.50
2008,08,24,02,51,12.50
2008,08,24,02,52,12.50
2008,08,24,02,53,12.50
2008,08,24,02,54,12.50
2008,08,24,02,55,12.60
2008,08,24,02,56,12.60
2008,08,24,02,57,12.60
2008,08,24,02,58,12.60
2008,08,24,02,59,12.60
2008,08,24,03,00,12.60
2008,08,24,03,01,12.60
2008,08,24,03,02,12.60
2008,08,24,03,03,12.60
2008,08,24,03,04,12.60
2008,08,24,03,05,12.50
2008,08,24,03,06,12.50
2008,08,24,03,07,12.50
2008,08,24,03,08,12.50
2008,08,24,03,09,12.50
2008,08,24,03,10,12.50
2008,08,24,03,11,12.50
2008,08,24,03,12,12.50
2008,08,24,03,13,12.50
2008,08,24,03,14,12.50
2008,08,24,03,15,12.50
2008,08,24,03,16,12.50
2008,08,24,03,17,12.50
2008,08,24,03,18,12.50
2008,08,24,03,19,12.50
2008,08,24,03,20,12.50
2008,08,24,03,21,12.50
2008,08,24,03,22,12.50
2008,08,24,03,23,12.50
2008,08,24,03,24,12.50
2008,08,24,03,25,12.50
2008,08,24,03,26,12.50
2008,08,24,03,27,12.50
2008,08,24,03,28,12.50
2008,08,24,03,29,12.50
2008,08,24,03,30,12.50
2008,08,24,03,31,12.50
2008,08,24,03,32,12.50
2008,08,24,03,33,12.50
2008,08,24,03,34,12.50
2008,08,24,03,35,12.50
2008,08,24,03,36,12.50
2008,08,24,03,37,12.50
2008,08,24,03,38,12.50
2008,08,24,03,39,12.50
2008,08,24,03,40,12.60
2008,08,24,03,41,12.60
2008,08,24,03,42,12.60
2008,08,24,03,43,12.60
2008,08,24,03,44,12.60
2008,08,24,03,45,12.60
2008,08,24,03,46,12.60
2008,08,24,03,47,12.60
2008,08,24,03,48,12.60
2008,08,24,03,49,12.60
2008,08,24,03,50,12.60
2008,08,24,03,51,12.60
2008,08,24,03,52,12.60
2008,08,24,03,53,12.60
2008,08,24,03,54,12.60
2008,08,24,03,55,12.60
2008,08,24,03,56,12.60
2008,08,24,03,57,12.60
2008,08,24,03,58,12.60
2008,08,24,03,59,12.60
2008,08,24,04,00,12.60
2008,08,24,04,01,12.60
2008,08,24,04,02,12.60
2008,08,24,04,03,12.60
2008,08,24,04,04,12.60
2008,08,24,04,05,12.60
2008,08,24,04,06,12.60
2008,08,24,04,07,12.60
2008,08,24,04,29,12.70
2008,08,24,04,47,12.70
2008,08,24,05,00,12.90
2008,08,24,05,23,13.40
2008,08,24,05,37,13.50
2008,08,24,05,53,13.70
2008,08,24,06,08,13.80
2008,08,24,06,25,14.10
2008,08,24,06,42,14.20
2008,08,24,07,00,14.20
2008,08,24,07,18,14.10
2008,08,24,07,31,14.00
2008,08,24,07,32,14.00
2008,08,24,07,33,14.00
2008,08,24,07,34,14.00
2008,08,24,07,35,14.00
2008,08,24,07,36,14.00
2008,08,24,07,37,14.00
2008,08,24,07,38,14.00
2008,08,24,07,39,14.00
2008,08,24,07,40,14.00
2008,08,24,07,41,14.00
2008,08,24,07,42,14.00
2008,08,24,07,43,14.00
2008,08,24,07,44,14.00
2008,08,24,07,45,14.00
2008,08,24,07,46,14.00
2008,08,24,07,47,14.00
2008,08,24,07,48,14.00
2008,08,24,07,49,14.00
2008,08,24,07,50,14.10
2008,08,24,07,51,14.10
2008,08,24,07,52,14.10
2008,08,24,07,53,14.10
2008,08,24,07,54,14.10
2008,08,24,07,55,14.10
2008,08,24,07,56,14.10
2008,08,24,07,57,14.10
2008,08,24,07,58,14.10
2008,08,24,07,59,14.10
2008,08,24,08,00,14.20
2008,08,24,08,01,14.20
2008,08,24,08,02,14.20
2008,08,24,08,03,14.20
2008,08,24,08,04,14.20
2008,08,24,08,05,14.20
2008,08,24,08,06,14.20
2008,08,24,08,07,14.20
2008,08,24,08,08,14.20
2008,08,24,08,09,14.20
2008,08,24,08,10,14.20
2008,08,24,08,11,14.20
2008,08,24,08,12,14.20
2008,08,24,08,13,14.20
2008,08,24,08,14,14.20
2008,08,24,08,15,14.20
2008,08,24,08,16,14.20
2008,08,24,08,17,14.20
2008,08,24,08,18,14.20
2008,08,24,08,19,14.20
2008,08,24,08,20,14.20
2008,08,24,08,21,14.20
2008,08,24,08,22,14.20
2008,08,24,08,23,14.30
2008,08,24,08,24,14.30
2008,08,24,08,25,14.30
2008,08,24,08,26,14.30
2008,08,24,08,27,14.30
2008,08,24,08,28,14.40
2008,08,24,08,29,14.40
2008,08,24,08,30,14.40
2008,08,24,08,31,14.40
2008,08,24,08,32,14.40
2008,08,24,08,33,14.50
2008,08,24,08,34,14.50
2008,08,24,08,35,14.50
2008,08,24,08,36,14.50
2008,08,24,08,37,14.50
2008,08,24,08,38,14.50
2008,08,24,08,39,14.50
2008,08,24,08,40,14.50
2008,08,24,08,41,14.50
2008,08,24,08,42,14.60
2008,08,24,08,43,14.60
2008,08,24,08,44,14.60
2008,08,24,08,45,14.60
2008,08,24,08,46,14.60
2008,08,24,08,47,14.60
2008,08,24,08,48,14.60
2008,08,24,08,49,14.60
2008,08,24,08,50,14.60
2008,08,24,08,51,14.60
2008,08,24,08,52,14.70
2008,08,24,08,53,14.70
2008,08,24,08,54,14.70
2008,08,24,08,55,14.70
2008,08,24,08,56,14.70
2008,08,24,08,57,14.70
2008,08,24,08,58,14.70
2008,08,24,08,59,14.70
2008,08,24,09,00,14.80
2008,08,24,09,01,14.80
2008,08,24,09,02,14.80
2008,08,24,09,03,14.80
2008,08,24,09,04,14.80
2008,08,24,09,05,14.80
2008,08,24,09,06,14.80
2008,08,24,09,07,14.80
2008,08,24,09,08,14.80
2008,08,24,09,09,14.80
2008,08,24,09,10,14.80
2008,08,24,09,11,14.80
2008,08,24,09,12,14.80
2008,08,24,09,13,14.90
2008,08,24,09,14,14.90
2008,08,24,09,15,14.90
2008,08,24,09,16,14.90
2008,08,24,09,17,15.00
2008,08,24,09,18,15.00
2008,08,24,09,19,15.00
2008,08,24,09,20,15.00
2008,08,24,09,21,15.00
2008,08,24,09,22,15.00
2008,08,24,09,23,15.00
2008,08,24,09,24,15.00
2008,08,24,09,25,15.00
2008,08,24,09,26,15.00
2008,08,24,09,27,15.10
2008,08,24,09,28,15.10
2008,08,24,09,29,15.10
2008,08,24,09,30,15.10
2008,08,24,09,31,15.10
2008,08,24,09,32,15.00
2008,08,24,09,33,15.00
2008,08,24,09,34,15.00
2008,08,24,09,35,15.00
2008,08,24,09,36,15.00
2008,08,24,09,37,15.00
2008,08,24,09,38,15.00
2008,08,24,09,39,15.00
2008,08,24,09,40,15.00
2008,08,24,09,41,15.00
2008,08,24,09,42,15.00
2008,08,24,09,43,15.00
2008,08,24,09,44,14.90
2008,08,24,09,45,14.90
2008,08,24,09,46,14.90
2008,08,24,09,47,14.90
2008,08,24,09,48,14.90
2008,08,24,09,49,14.90
2008,08,24,09,50,15.00
2008,08,24,09,51,15.00
2008,08,24,09,52,15.00
2008,08,24,09,53,15.10
2008,08,24,09,54,15.10
2008,08,24,09,55,15.00
2008,08,24,09,56,15.00
2008,08,24,09,57,15.00
2008,08,24,09,58,15.00
2008,08,24,09,59,15.00
2008,08,24,10,00,15.00
2008,08,24,10,01,15.00
2008,08,24,10,02,15.00
2008,08,24,10,03,15.00
2008,08,24,10,04,15.00
2008,08,24,10,05,15.00
2008,08,24,10,06,15.00
2008,08,24,10,07,15.00
2008,08,24,10,08,15.00
2008,08,24,10,09,15.00
2008,08,24,10,10,15.10
2008,08,24,10,11,15.10
2008,08,24,10,12,15.10
2008,08,24,10,13,15.10
2008,08,24,10,14,15.00
2008,08,24,10,15,15.10
2008,08,24,10,16,15.10
2008,08,24,10,17,15.10
2008,08,24,10,18,15.10
2008,08,24,10,19,15.00
2008,08,24,10,20,15.00
2008,08,24,10,21,15.00
2008,08,24,10,22,14.90
2008,08,24,10,23,14.90
2008,08,24,10,24,14.90
2008,08,24,10,25,14.90
2008,08,24,10,26,14.80
2008,08,24,10,27,14.80
2008,08,24,10,28,14.70
2008,08,24,10,29,14.60
2008,08,24,10,30,14.50
2008,08,24,10,31,14.40
2008,08,24,10,32,14.40
2008,08,24,10,33,14.30
2008,08,24,10,34,14.30
2008,08,24,10,35,14.40
2008,08,24,10,36,14.40
2008,08,24,10,37,14.40
2008,08,24,10,38,14.40
2008,08,24,10,39,14.30
2008,08,24,10,40,14.20
2008,08,24,10,41,14.20
2008,08,24,10,42,14.10
2008,08,24,10,43,14.10
2008,08,24,10,44,14.10
2008,08,24,10,45,14.10
2008,08,24,10,46,14.10
2008,08,24,10,47,14.10
2008,08,24,10,48,14.10
2008,08,24,10,49,14.20
2008,08,24,10,50,14.20
2008,08,24,10,51,14.20
2008,08,24,10,52,14.20
2008,08,24,10,53,14.20
2008,08,24,10,54,14.20
2008,08,24,10,55,14.20
2008,08,24,10,56,14.20
2008,08,24,10,57,14.20
2008,08,24,10,58,14.20
2008,08,24,10,59,14.20
2008,08,24,11,00,14.20
2008,08,24,11,01,14.20
2008,08,24,11,02,14.20
2008,08,24,11,03,14.20
2008,08,24,11,04,14.20
2008,08,24,11,05,14.20
2008,08,24,11,06,14.20
2008,08,24,11,07,14.10
2008,08,24,11,08,14.00
2008,08,24,11,09,13.90
2008,08,24,11,10,13.80
2008,08,24,11,11,13.70
2008,08,24,11,12,13.60
2008,08,24,11,13,13.60
2008,08,24,11,14,13.60
2008,08,24,11,15,13.60
2008,08,24,11,16,13.60
2008,08,24,11,17,13.60
2008,08,24,11,18,13.60
2008,08,24,11,19,13.60
2008,08,24,11,20,13.60
2008,08,24,11,21,13.60
2008,08,24,11,22,13.60
2008,08,24,11,23,13.70
2008,08,24,11,24,13.70
2008,08,24,11,25,13.70
2008,08,24,11,26,13.70
2008,08,24,11,27,13.80
2008,08,24,11,28,13.80
2008,08,24,11,29,13.80
2008,08,24,11,30,13.90
2008,08,24,11,31,13.90
2008,08,24,11,32,13.90
2008,08,24,11,33,13.90
2008,08,24,11,34,13.90
2008,08,24,11,35,13.90
2008,08,24,11,36,14.00
2008,08,24,11,37,14.00
2008,08,24,11,38,14.00
2008,08,24,11,39,14.00
2008,08,24,11,40,14.00
2008,08,24,11,41,14.10
2008,08,24,11,42,14.10
2008,08,24,11,43,14.10
2008,08,24,11,44,14.20
2008,08,24,11,45,14.20
2008,08,24,11,46,14.20
2008,08,24,11,47,14.20
2008,08,24,11,48,14.10
2008,08,24,11,49,14.10
2008,08,24,11,50,14.10
2008,08,24,11,51,14.10
2008,08,24,11,52,14.10
2008,08,24,11,53,14.10
2008,08,24,11,54,14.10
2008,08,24,11,55,14.20
2008,08,24,11,56,14.20
2008,08,24,11,57,14.20
2008,08,24,11,58,14.20
2008,08,24,11,59,14.20
2008,08,24,12,00,14.20
2008,08,24,12,01,14.20
2008,08,24,12,02,14.20
2008,08,24,12,03,14.20
2008,08,24,12,04,14.20
2008,08,24,12,05,14.20
2008,08,24,12,06,14.20
2008,08,24,12,07,14.20
2008,08,24,12,08,14.30
2008,08,24,12,09,14.30
2008,08,24,12,10,14.30
2008,08,24,12,11,14.30
2008,08,24,12,12,14.30
2008,08,24,12,13,14.30
2008,08,24,12,14,14.30
2008,08,24,12,15,14.40
2008,08,24,12,16,14.40
2008,08,24,12,17,14.40
2008,08,24,12,18,14.40
2008,08,24,12,19,14.50
2008,08,24,12,20,14.50
2008,08,24,12,21,14.60
2008,08,24,12,22,14.60
2008,08,24,12,23,14.60
2008,08,24,12,24,14.60
2008,08,24,12,25,14.60
2008,08,24,12,26,14.70
2008,08,24,12,27,14.70
2008,08,24,12,28,14.70
2008,08,24,12,29,14.70
2008,08,24,12,30,14.60
2008,08,24,12,31,14.60
2008,08,24,12,32,14.60
2008,08,24,12,33,14.70
2008,08,24,12,34,14.70
2008,08,24,12,35,14.70
2008,08,24,12,36,14.70
2008,08,24,12,37,14.70
2008,08,24,12,38,14.80
2008,08,24,12,39,14.80
2008,08,24,12,40,14.80
2008,08,24,12,41,14.80
2008,08,24,12,42,14.80
2008,08,24,12,43,14.80
2008,08,24,12,44,14.80
2008,08,24,12,45,14.80
2008,08,24,12,46,14.80
2008,08,24,12,47,14.80
2008,08,24,12,48,14.90
2008,08,24,12,49,14.90
2008,08,24,12,50,14.80
2008,08,24,12,51,14.80
2008,08,24,12,52,14.80
2008,08,24,12,53,14.80
2008,08,24,12,54,14.80
2008,08,24,12,55,14.80
2008,08,24,12,56,14.80
2008,08,24,12,57,14.90
2008,08,24,12,58,14.90
2008,08,24,12,59,14.90
2008,08,24,13,00,14.90
2008,08,24,13,01,14.90
2008,08,24,13,02,14.90
2008,08,24,13,03,14.90
2008,08,24,13,04,14.90
2008,08,24,13,05,14.90
2008,08,24,13,06,14.90
2008,08,24,13,07,14.90
2008,08,24,13,08,14.90
2008,08,24,13,09,15.00
2008,08,24,13,10,15.00
2008,08,24,13,11,15.00
2008,08,24,13,12,15.00
2008,08,24,13,13,15.00
2008,08,24,13,14,15.00
2008,08,24,13,15,15.00
2008,08,24,13,16,15.00
2008,08,24,13,17,15.00
2008,08,24,13,18,15.00
2008,08,24,13,19,15.00
2008,08,24,13,20,15.00
2008,08,24,13,21,15.00
2008,08,24,13,22,15.00
2008,08,24,13,23,15.00
2008,08,24,13,24,15.10
2008,08,24,13,25,15.10
2008,08,24,13,26,15.10
2008,08,24,13,27,15.10
2008,08,24,13,28,15.10
2008,08,24,13,29,15.20
2008,08,24,13,30,15.30
2008,08,24,13,31,15.30
2008,08,24,13,32,15.30
2008,08,24,13,33,15.40
2008,08,24,13,34,15.50
2008,08,24,13,35,15.50
2008,08,24,13,36,15.60
2008,08,24,13,37,15.70
2008,08,24,13,38,15.70
2008,08,24,13,39,15.80
2008,08,24,13,40,15.80
2008,08,24,13,41,15.80
2008,08,24,13,42,15.80
2008,08,24,13,43,15.80
2008,08,24,13,44,15.80
2008,08,24,13,45,15.80
2008,08,24,13,46,15.90
2008,08,24,13,47,15.90
2008,08,24,13,48,15.90
2008,08,24,13,49,16.10
2008,08,24,13,50,16.10
2008,08,24,13,51,16.10
2008,08,24,13,52,16.10
2008,08,24,13,53,16.10
2008,08,24,13,54,16.10
2008,08,24,13,55,16.10
2008,08,24,13,56,16.10
2008,08,24,13,57,16.10
2008,08,24,13,58,16.00
2008,08,24,13,59,16.00
2008,08,24,14,00,15.90
2008,08,24,14,01,15.90
2008,08,24,14,02,15.90
2008,08,24,14,03,15.90
2008,08,24,14,04,15.80
2008,08,24,14,05,15.70
2008,08,24,14,06,15.70
2008,08,24,14,07,15.70
2008,08,24,14,08,15.70
2008,08,24,14,09,15.70
2008,08,24,14,10,15.70
2008,08,24,14,11,15.60
2008,08,24,14,12,15.60
2008,08,24,14,13,15.60
2008,08,24,14,14,15.60
2008,08,24,14,15,15.60
2008,08,24,14,16,15.50
2008,08,24,14,17,15.40
2008,08,24,14,18,15.40
2008,08,24,14,19,15.30
2008,08,24,14,20,15.30
2008,08,24,14,21,15.30
2008,08,24,14,22,15.30
2008,08,24,14,23,15.30
2008,08,24,14,24,15.30
2008,08,24,14,25,15.30
2008,08,24,14,26,15.30
2008,08,24,14,27,15.30
2008,08,24,14,28,15.30
2008,08,24,14,29,15.30
2008,08,24,14,30,15.30
2008,08,24,14,31,15.30
2008,08,24,14,32,15.30
2008,08,24,14,33,15.30
2008,08,24,14,34,15.30
2008,08,24,14,35,15.30
2008,08,24,14,36,15.30
2008,08,24,14,37,15.30
2008,08,24,14,38,15.30
2008,08,24,14,39,15.30
2008,08,24,14,40,15.30
2008,08,24,14,41,15.30
2008,08,24,14,42,15.30
2008,08,24,14,43,15.30
2008,08,24,14,44,15.30
2008,08,24,14,45,15.30
2008,08,24,14,46,15.30
2008,08,24,14,47,15.30
2008,08,24,14,48,15.40
2008,08,24,14,49,15.40
2008,08,24,14,50,15.40
2008,08,24,14,51,15.40
2008,08,24,14,52,15.40
2008,08,24,14,53,15.40
2008,08,24,14,54,15.40
2008,08,24,14,55,15.50
2008,08,24,14,56,15.50
2008,08,24,14,57,15.50
2008,08,24,14,58,15.50
2008,08,24,14,59,15.50
2008,08,24,15,00,15.50
2008,08,24,15,01,15.50
2008,08,24,15,02,15.50
2008,08,24,15,03,15.50
2008,08,24,15,04,15.50
2008,08,24,15,05,15.50
2008,08,24,15,06,15.60
2008,08,24,15,07,15.60
2008,08,24,15,08,15.60
2008,08,24,15,09,15.60
2008,08,24,15,10,15.60
2008,08,24,15,11,15.60
2008,08,24,15,12,15.70
2008,08,24,15,13,15.70
2008,08,24,15,14,15.70
2008,08,24,15,15,15.70
2008,08,24,15,16,15.70
2008,08,24,15,17,15.70
2008,08,24,15,18,15.80
2008,08,24,15,19,15.80
2008,08,24,15,20,15.80
2008,08,24,15,21,15.80
2008,08,24,15,22,15.80
2008,08,24,15,23,15.80
2008,08,24,15,24,15.80
2008,08,24,15,25,15.80
2008,08,24,15,26,15.80
2008,08,24,15,27,15.80
2008,08,24,15,28,15.80
2008,08,24,15,29,15.80
2008,08,24,15,30,15.80
2008,08,24,15,31,15.80
2008,08,24,15,32,15.80
2008,08,24,15,33,15.80
2008,08,24,15,34,15.80
2008,08,24,15,35,15.80
2008,08,24,15,36,15.80
2008,08,24,15,37,15.80
2008,08,24,15,38,15.90
2008,08,24,15,39,15.90
2008,08,24,15,40,15.90
2008,08,24,15,41,15.90
2008,08,24,15,42,16.10
2008,08,24,15,43,16.00
2008,08,24,15,44,15.90
2008,08,24,15,45,16.10
2008,08,24,15,46,15.90
2008,08,24,15,47,15.90
2008,08,24,15,48,16.00
2008,08,24,15,49,16.10
2008,08,24,15,50,16.10
2008,08,24,15,51,16.10
2008,08,24,15,52,16.10
2008,08,24,15,53,16.10
2008,08,24,15,54,16.10
2008,08,24,15,55,16.10
2008,08,24,15,56,16.10
2008,08,24,15,57,16.10
2008,08,24,15,58,16.10
2008,08,24,15,59,16.10
2008,08,24,16,00,16.10
2008,08,24,16,01,16.10
2008,08,24,16,02,16.10
2008,08,24,16,03,16.10
2008,08,24,16,04,16.10
2008,08,24,16,05,16.10
2008,08,24,16,06,16.10
2008,08,24,16,07,16.10
2008,08,24,16,08,16.10
2008,08,24,16,09,16.10
2008,08,24,16,10,16.00
2008,08,24,16,11,15.90
2008,08,24,16,12,15.90
2008,08,24,16,13,15.90
2008,08,24,16,14,15.90
2008,08,24,16,15,15.90
2008,08,24,16,16,15.80
2008,08,24,16,17,15.80
2008,08,24,16,18,15.80
2008,08,24,16,19,15.80
2008,08,24,16,20,15.80
2008,08,24,16,21,15.80
2008,08,24,16,22,15.80
2008,08,24,16,23,15.80
2008,08,24,16,24,15.80
2008,08,24,16,25,15.80
2008,08,24,16,26,15.80
2008,08,24,16,27,15.80
2008,08,24,16,28,15.80
2008,08,24,16,29,15.80
2008,08,24,16,30,15.80
2008,08,24,16,31,15.80
2008,08,24,16,32,15.80
2008,08,24,16,33,15.80
2008,08,24,16,34,15.80
2008,08,24,16,35,15.80
2008,08,24,16,36,15.80
2008,08,24,16,37,15.80
2008,08,24,16,38,15.80
2008,08,24,16,39,15.80
2008,08,24,16,40,15.80
2008,08,24,16,41,15.80
2008,08,24,16,42,15.70
2008,08,24,16,43,15.70
2008,08,24,16,44,15.70
2008,08,24,16,45,15.70
2008,08,24,16,46,15.70
2008,08,24,16,47,15.80
2008,08,24,16,48,15.80
2008,08,24,16,49,15.80
2008,08,24,16,50,15.80
2008,08,24,16,51,15.80
2008,08,24,16,52,15.80
2008,08,24,16,53,15.80
2008,08,24,16,54,15.80
2008,08,24,16,55,15.80
2008,08,24,16,56,15.80
2008,08,24,16,57,15.80
2008,08,24,16,58,15.80
2008,08,24,16,59,15.80
2008,08,24,17,00,15.80
2008,08,24,17,01,15.80
2008,08,24,17,02,15.80
2008,08,24,17,03,15.80
2008,08,24,17,04,15.80
2008,08,24,17,05,15.80
2008,08,24,17,06,15.80
2008,08,24,17,07,15.80
2008,08,24,17,08,15.80
2008,08,24,17,09,15.80
2008,08,24,17,10,15.80
2008,08,24,17,11,15.80
2008,08,24,17,12,15.80
2008,08,24,17,13,15.80
2008,08,24,17,14,15.80
2008,08,24,17,15,15.80
2008,08,24,17,16,15.80
2008,08,24,17,17,15.80
2008,08,24,17,18,15.80
2008,08,24,17,19,15.80
2008,08,24,17,20,15.80
2008,08,24,17,21,15.80
2008,08,24,17,22,15.80
2008,08,24,17,23,15.80
2008,08,24,17,24,15.80
2008,08,24,17,25,15.80
2008,08,24,17,26,15.80
2008,08,24,17,27,15.80
2008,08,24,17,28,15.80
2008,08,24,17,29,15.80
2008,08,24,17,30,15.80
2008,08,24,17,31,15.80
2008,08,24,17,32,15.80
2008,08,24,17,33,15.80
2008,08,24,17,34,15.80
2008,08,24,17,35,15.80
2008,08,24,17,36,15.80
2008,08,24,17,37,15.80
2008,08,24,17,38,15.80
2008,08,24,17,39,15.80
2008,08,24,17,40,15.80
2008,08,24,17,41,15.70
2008,08,24,17,42,15.70
2008,08,24,17,43,15.70
2008,08,24,17,44,15.70
2008,08,24,17,45,15.70
2008,08,24,17,46,15.70
2008,08,24,17,47,15.70
2008,08,24,17,48,15.70
2008,08,24,17,49,15.70
2008,08,24,17,50,15.60
2008,08,24,17,51,15.60
2008,08,24,17,52,15.60
2008,08,24,17,53,15.60
2008,08,24,17,54,15.60
2008,08,24,17,55,15.60
2008,08,24,17,56,15.60
2008,08,24,17,57,15.60
2008,08,24,17,58,15.50
2008,08,24,17,59,15.50
2008,08,24,18,00,15.50
2008,08,24,18,01,15.50
2008,08,24,18,02,15.50
2008,08,24,18,03,15.50
2008,08,24,18,04,15.50
2008,08,24,18,05,15.50
2008,08,24,18,06,15.50
2008,08,24,18,07,15.50
2008,08,24,18,08,15.50
2008,08,24,18,09,15.50
2008,08,24,18,10,15.60
2008,08,24,18,11,15.60
2008,08,24,18,12,15.60
2008,08,24,18,13,15.60
2008,08,24,18,14,15.60
2008,08,24,18,15,15.60
2008,08,24,18,16,15.60
2008,08,24,18,17,15.60
2008,08,24,18,18,15.60
2008,08,24,18,19,15.60
2008,08,24,18,20,15.60
2008,08,24,18,21,15.60
2008,08,24,18,22,15.60
2008,08,24,18,23,15.60
2008,08,24,18,24,15.60
2008,08,24,18,25,15.60
2008,08,24,18,26,15.50
2008,08,24,18,27,15.50
2008,08,24,18,28,15.60
2008,08,24,18,29,15.60
2008,08,24,18,30,15.60
2008,08,24,18,31,15.60
2008,08,24,18,32,15.60
2008,08,24,18,33,15.60
2008,08,24,18,34,15.60
2008,08,24,18,35,15.60
2008,08,24,18,36,15.60
2008,08,24,18,37,15.60
2008,08,24,18,38,15.60
2008,08,24,18,39,15.60
2008,08,24,18,40,15.60
2008,08,24,18,41,15.60
2008,08,24,18,42,15.60
2008,08,24,18,43,15.60
2008,08,24,18,44,15.60
2008,08,24,18,45,15.60
2008,08,24,18,46,15.60
2008,08,24,18,47,15.60
2008,08,24,18,48,15.70
2008,08,24,18,49,15.70
2008,08,24,18,50,15.70
2008,08,24,18,51,15.70
2008,08,24,18,52,15.70
2008,08,24,18,53,15.70
2008,08,24,18,54,15.70
2008,08,24,18,55,15.70
2008,08,24,18,56,15.70
2008,08,24,18,57,15.70
2008,08,24,18,58,15.60
2008,08,24,18,59,15.60
2008,08,24,19,00,15.60
2008,08,24,19,01,15.50
2008,08,24,19,02,15.50
2008,08,24,19,03,15.50
2008,08,24,19,04,15.50
2008,08,24,19,05,15.50
2008,08,24,19,06,15.50
2008,08,24,19,07,15.40
2008,08,24,19,08,15.40
2008,08,24,19,09,15.40
2008,08,24,19,10,15.40
2008,08,24,19,11,15.40
2008,08,24,19,12,15.30
2008,08,24,19,13,15.30
2008,08,24,19,14,15.30
2008,08,24,19,15,15.30
2008,08,24,19,16,15.30
2008,08,24,19,17,15.30
2008,08,24,19,18,15.30
2008,08,24,19,19,15.30
2008,08,24,19,20,15.30
2008,08,24,19,21,15.30
2008,08,24,19,22,15.30
2008,08,24,19,23,15.20
2008,08,24,19,24,15.20
2008,08,24,19,25,15.20
2008,08,24,19,26,15.20
2008,08,24,19,27,15.10
2008,08,24,19,28,15.10
2008,08,24,19,29,15.10
2008,08,24,19,30,15.10
2008,08,24,19,31,15.10
2008,08,24,19,32,15.10
2008,08,24,19,33,15.10
2008,08,24,19,34,15.00
2008,08,24,19,35,15.00
2008,08,24,19,36,15.00
2008,08,24,19,37,15.00
2008,08,24,19,38,15.00
2008,08,24,19,39,15.00
2008,08,24,19,40,15.00
2008,08,24,19,41,14.90
2008,08,24,19,42,14.90
2008,08,24,19,43,14.90
2008,08,24,19,44,14.90
2008,08,24,19,45,14.90
2008,08,24,19,46,14.90
2008,08,24,19,47,14.90
2008,08,24,19,48,14.90
2008,08,24,19,49,14.90
2008,08,24,19,50,14.90
2008,08,24,19,51,14.90
2008,08,24,19,52,14.90
2008,08,24,19,53,14.90
2008,08,24,19,54,14.90
2008,08,24,19,55,14.90
2008,08,24,19,56,14.80
2008,08,24,19,57,14.90
2008,08,24,19,58,14.80
2008,08,24,19,59,14.80
2008,08,24,20,00,14.90
2008,08,24,20,01,14.80
2008,08,24,20,02,14.80
2008,08,24,20,03,14.80
2008,08,24,20,04,14.80
2008,08,24,20,05,14.80
2008,08,24,20,06,14.80
2008,08,24,20,07,14.80
2008,08,24,20,08,14.80
2008,08,24,20,09,14.80
2008,08,24,20,10,14.80
2008,08,24,20,11,14.80
2008,08,24,20,12,14.80
2008,08,24,20,13,14.80
2008,08,24,20,14,14.80
2008,08,24,20,15,14.80
2008,08,24,20,16,14.80
2008,08,24,20,17,14.80
2008,08,24,20,18,14.80
2008,08,24,20,19,14.80
2008,08,24,20,20,14.80
2008,08,24,20,21,14.80
2008,08,24,20,22,14.80
2008,08,24,20,23,14.80
2008,08,24,20,24,14.80
2008,08,24,20,25,14.80
2008,08,24,20,26,14.80
2008,08,24,20,27,14.80
2008,08,24,20,28,14.80
2008,08,24,20,29,14.80
2008,08,24,20,30,14.80
2008,08,24,20,31,14.80